Location: B?dargowo
(53.3916°N, 14.4413°E)
Time: 00:58:19
(UTC+00:00)

Spot 1 - Pass Details

Date: 05 February 2023
Orbit: 574 x 773 km, 98.8° (Epoch: 20 March)

Event Time Altitude Azimuth Distance (km) Brightness Sun altitude
Exits shadow 18:22:27 46° 171° (S) 781 4.4 -22.5°
Drops below altitude 10° 18:25:25 10° 189° (S) 1,884 6.6 -22.9°
Sets 18:27:33 0° 192° (SSW) 2,785 7.5 -23.2°
